RH
12 9 9 9 9 9 8 8 7 6 7 12 18 35 54 63 69 66 58 38 29 30 44 48 46 32 27 30 43 52 59 55 61 64 62 58 54 56 70 86 81 77 90
11 10 9 10 10 9 10 9 9 8 8 10 12 14 33 56 55 63 64 54 42 41 50 61 70 79 69 53 48 41 48 44 60 60 38 48 62 66 74 86 84 87 88
12 11 10 10 10 11 11 11 11 10 9 8 12 11 12 22 41 42 47 57 58 71 73 86 91 89 87 83 65 44 51 62 61 46 45 56 62 71 75 85 78 67 63
11 12 13 13 12 12 13 13 13 13 12 10 9 10 12 13 31 43 64 70 63 64 76 83 97 97 96 95 91 91 90 72 67 52 43 59 55 62 67 72 67 64 74
13 14 15 15 16 16 15 14 14 15 15 13 11 10 11 13 14 18 23 22 22 46 51 58 79 94 98 96 95 96 95 79 60 60 49 66 61 60 56 60 60 67 72
13 14 14 14 14 14 14 13 13 13 13 13 12 11 11 12 13 14 18 21 21 34 35 46 60 74 85 97 95 96 96 85 67 49 58 53 61 62 52 51 48 65 65
11 11 11 11 12 12 12 11 11 11 11 11 11 10 9 8 10 11 13 20 16 17 24 32 42 52 60 75 85 95 96 92 72 67 41 61 99 73 62 48 46 60 69
9 9 9 9 9 9 10 10 10 10 10 9 9 9 8 8 7 7 7 10 11 31 28 30 48 50 64 80 75 81 85 89 74 58 43 47 64 60 53 46 54 60 62
10 11 12 13 16 14 14 16 14 12 11 11 11 10 10 9 8 8 7 6 8 12 30 41 47 58 74 68 82 72 77 82 69 53 37 61 88 76 51 47 61 58 45
24 25 29 33 36 39 39 38 39 42 41 37 30 23 16 13 12 12 11 10 10 17 30 34 46 74 72 70 71 79 82 72 52 37 44 50 71 74 56 56 63 72 78
28 28 28 26 25 25 33 49 61 66 66 61 58 51 44 38 34 26 19 15 12 15 27 43 61 67 78 76 79 82 81 60 40 42 62 71 100 75 62 78 86 83 72
28 28 29 29 25 19 20 23 31 74 83 79 75 69 56 44 39 33 32 26 20 15 33 48 66 65 78 71 72 74 56 45 44 65 88 93 100 82 78 98 100 99 99
31 38 32 25 14 19 50 99 100 93 86 94 94 67 55 39 29 26 25 30 25 35 72 55 51 55 63 65 63 53 50 50 58 98 99 100 100 97 96 98 98 94 93
34 35 30 11 20 47 99 100 87 76 83 98 99 61 31 24 17 13 12 31 34 86 83 71 52 51 64 64 57 52 59 60 77 97 98 92 99 99 98 99 100 100 98
43 41 16 20 27 89 91 91 73 73 66 45 34 33 32 31 27 25 27 51 47 58 72 73 59 62 65 60 55 59 74 97 78 80 100 98 99 100 99 99 98 87 77
47 46 18 22 29 43 52 56 48 35 38 43 54 68 82 88 94 85 75 64 61 68 82 66 61 65 58 64 63 96 100 98 99 97 99 98 98 100 98 87 69 76 66
53 55 56 15 18 27 44 72 84 92 83 100 85 97 100 85 80 87 93 84 85 81 66 62 59 62 67 66 99 80 99 99 97 97 100 100 98 90 71 75 65 49 39
46 61 69 62 32 20 21 31 32 60 79 80 79 99 100 100 100 100 100 95 72 78 79 84 75 76 99 95 89 96 97 96 96 100 99 85 65 69 65 51 41 37 32
49 42 73 67 67 78 80 76 83 89 97 98 96 99 100 100 86 89 88 84 87 82 74 99 98 98 95 100 99 99 99 99 98 72 56 71 66 54 44 38 32 27 22
61 45 42 70 92 77 74 83 83 83 93 99 98 90 82 77 88 85 84 78 76 83 99 99 100 99 98 95 98 94 59 53 68 72 60 53 46 40 34 27 22 20 11
71 50 54 53 71 67 86 93 94 89 90 94 95 97 90 92 99 100 100 99 99 98 98 98 98 98 87 58 49 66 71 65 61 54 49 40 33 28 25 24 18 11 10
78 77 82 76 80 58 76 96 97 97 99 99 91 99 98 97 95 91 97 98 99 98 97 88 63 47 56 63 62 57 57 56 52 41 35 31 29 27 22 13 11 11 6
80 84 82 90 90 84 93 100 100 93 91 93 98 98 98 100 100 100 95 81 55 41 45 59 66 59 52 52 56 59 53 41 36 32 31 31 28 19 13 13 14 6 6
85 85 83 81 79 85 93 94 93 93 95 100 100 100 89 74 57 40 40 43 49 53 53 51 50 51 56 61 57 44 39 36 34 35 34 27 19 16 16 12 6 9 13
85 85 82 83 85 82 87 91 90 86 87 85 76 58 42 38 49 56 54 53 52 52 54 56 59 60 57 49 41 36 34 32 31 31 26 21 20 17 7 6 13 13 13
88 93 86 87 88 88 84 73 61 51 45 42 36 36 44 49 52 55 54 52 52 54 59 61 58 48 38 35 33 31 29 28 26 20 19 19 10 4 10 18 16 14 16
Wind_Speed
41 42 43 42 38 40 42 43 45 43 42 41 41 41 38 37 36 34 35 34 33 33 36 36 35 32 33 34 34 36 37 36 36 37 37 37 38 38 36 34 37 36 34
43 43 44 45 43 41 41 44 45 46 45 43 41 42 41 41 41 39 37 35 35 35 40 40 38 35 33 32 34 36 36 36 36 36 37 37 36 36 36 36 36 35 37
42 43 44 46 46 44 42 43 46 48 48 48 46 44 44 43 43 41 38 39 38 40 44 45 42 39 36 34 35 37 36 34 35 35 35 35 36 37 37 37 37 36 37
43 41 43 45 47 48 47 46 46 47 50 52 52 48 46 44 42 42 42 39 38 41 46 46 44 43 39 40 38 36 36 36 36 37 37 36 36 38 37 37 39 40 42
41 41 42 44 46 46 47 48 48 48 49 51 53 53 52 47 45 43 42 42 43 43 43 49 50 48 46 43 40 39 38 39 39 38 39 38 39 38 38 39 40 43 43
37 39 42 44 46 49 51 51 52 52 53 53 54 55 56 56 52 50 48 47 47 48 46 47 50 50 48 47 45 43 41 41 42 42 40 41 40 41 41 43 44 44 45
40 43 46 48 50 52 54 56 57 57 58 58 58 58 60 61 62 59 56 54 50 49 51 48 48 50 51 50 47 46 47 44 45 44 45 41 43 42 46 45 45 46 47
42 46 48 51 54 58 60 61 63 64 66 67 66 65 64 64 65 65 65 60 57 54 51 52 51 50 51 50 50 50 49 47 47 47 47 45 45 44 46 47 47 48 50
41 44 48 51 54 58 60 62 65 67 69 70 71 71 72 72 72 72 71 69 65 60 55 55 55 52 52 51 52 52 51 49 51 50 47 45 49 45 48 48 49 51 53
36 42 47 51 54 56 59 62 64 65 67 67 68 68 67 67 68 69 71 74 71 65 59 59 58 54 52 52 54 53 52 51 51 49 47 48 50 48 50 50 51 51 57
39 43 47 51 56 60 62 61 62 62 63 66 67 65 64 65 66 65 63 63 67 69 63 60 58 56 54 53 52 51 51 50 50 50 46 49 48 50 51 56 57 58 64
39 43 48 52 56 57 55 60 61 61 62 64 64 61 62 64 67 66 66 64 60 58 63 62 56 55 54 53 51 49 48 49 49 50 44 47 54 53 56 55 62 67 71
39 43 49 56 57 49 42 43 46 49 51 55 54 54 55 56 59 62 63 65 61 56 51 57 59 55 54 52 47 46 47 47 51 47 47 49 53 55 54 59 65 70 73
37 41 51 44 38 33 34 34 38 39 41 40 41 41 42 46 51 56 60 58 60 52 53 53 53 51 49 47 45 47 48 47 43 46 48 56 59 60 60 69 72 69 66
34 40 37 26 24 15 22 19 19 21 22 25 29 30 36 41 47 51 56 61 59 57 53 50 46 43 45 44 44 44 47 43 43 44 55 54 52 60 63 65 65 66 66
31 36 29 19 22 16 14 14 14 15 18 22 21 20 23 24 31 32 30 42 51 47 46 41 39 39 39 42 39 38 45 45 45 53 52 53 57 66 66 63 65 68 66
27 32 30 19 16 16 13 11 4 4 6 11 12 9 13 13 17 21 24 30 34 35 38 37 33 35 40 35 38 38 46 55 48 47 51 59 63 61 60 63 63 64 68
22 28 25 23 18 13 11 9 10 7 9 10 12 11 16 13 11 16 25 29 31 30 29 29 31 35 30 34 37 39 46 53 51 56 57 56 58 61 61 61 64 67 72
19 20 24 19 19 16 13 9 3 3 4 11 10 16 14 12 10 12 16 19 21 21 20 29 22 31 30 35 37 43 46 47 48 52 54 55 56 58 61 63 66 70 76
18 16 15 16 18 14 10 7 4 2 7 8 7 6 9 10 9 7 8 13 15 26 24 25 27 28 34 35 34 37 39 42 46 50 52 53 56 59 62 67 71 76 81
14 11 14 12 14 13 10 9 7 10 12 12 12 7 12 13 5 7 4 7 11 16 21 16 19 25 28 32 36 37 40 43 46 48 51 55 58 62 68 73 77 81 88
12 13 12 10 9 10 11 14 9 6 8 8 10 5 10 8 2 4 3 7 11 13 16 20 23 28 31 34 36 39 41 43 45 50 54 58 62 68 73 77 82 88 92
14 13 14 12 9 4 4 6 8 8 9 10 10 5 3 2 4 3 5 8 12 16 19 22 26 31 34 35 36 38 42 46 50 55 60 64 68 73 78 83 88 85 51
10 11 10 9 11 9 5 7 7 9 8 8 6 7 4 4 6 9 11 14 16 20 23 26 29 31 32 34 38 42 47 52 57 62 67 70 74 80 85 88 68 33 26
8 10 9 9 8 7 7 7 7 8 8 6 5 8 9 10 12 14 16 19 22 23 25 27 28 30 34 39 43 48 53 59 64 68 73 77 82 88 82 47 24 25 22
8 10 8 5 5 7 8 9 10 10 10 11 12 13 15 16 17 19 21 22 24 26 26 27 30 34 39 43 49 54 60 65 70 75 80 85 88 68 34 23 20 22 24
Wind_Direction
252 253 256 256 250 245 247 251 253 252 250 245 247 249 254 256 254 256 256 258 264 268 269 271 270 268 269 271 272 273 275 278 280 284 287 290 291 291 294 297 292 290 288
255 255 255 256 254 248 245 248 250 252 252 251 247 248 249 252 255 254 258 261 262 265 268 268 269 269 267 270 272 273 276 278 280 284 289 292 292 291 295 293 297 294 292
258 259 257 257 257 254 251 247 249 251 249 250 249 248 248 250 254 259 260 262 260 257 262 267 270 270 269 267 270 274 275 278 281 286 290 290 289 290 296 294 294 294 294
255 256 258 259 259 259 259 254 251 252 253 251 251 252 250 249 251 255 258 258 262 262 262 264 265 268 267 268 270 271 270 277 280 284 285 286 288 289 291 295 295 295 296
260 260 259 260 260 260 259 260 259 257 256 254 253 252 252 251 251 253 258 262 265 264 264 263 263 266 271 272 270 270 274 279 280 280 284 287 290 289 291 291 292 294 295
261 262 262 261 259 259 258 256 255 255 253 252 251 250 251 252 252 252 256 259 263 265 264 262 262 264 266 268 270 273 274 278 280 281 282 285 288 290 291 292 293 293 294
259 260 260 260 259 259 258 258 258 256 254 252 252 251 251 250 251 251 253 256 257 262 266 264 262 262 264 266 269 272 276 277 279 280 283 284 280 287 290 292 293 293 293
264 266 267 266 265 263 262 261 259 257 256 255 254 253 252 252 253 255 256 254 258 256 261 266 264 262 263 265 267 269 274 276 278 281 282 282 282 288 289 289 289 289 291
279 277 273 270 268 265 262 260 258 256 256 255 254 254 253 253 253 253 254 256 254 253 252 257 261 262 260 263 265 268 271 275 278 280 280 282 282 285 289 289 287 286 292
279 279 276 273 272 269 267 265 261 256 251 252 252 251 250 250 250 251 253 253 252 250 248 251 255 255 260 261 264 268 272 274 279 282 282 284 279 285 289 286 290 290 295
291 289 285 281 278 274 270 265 260 259 254 250 247 247 248 249 249 248 249 252 252 250 249 248 249 254 256 262 264 270 273 275 279 278 280 282 285 290 290 285 288 288 296
300 296 294 291 290 284 274 266 263 258 255 253 252 249 246 244 245 243 243 243 247 249 249 248 248 251 255 260 266 271 273 275 277 286 269 292 276 281 286 283 286 290 295
306 305 303 305 300 291 279 266 259 256 258 256 250 246 244 243 242 243 241 240 240 242 244 248 250 252 257 262 268 271 271 273 275 301 269 278 278 281 286 290 293 295 296
316 318 321 311 298 284 274 252 256 263 266 257 251 249 247 244 242 240 239 234 239 235 243 247 248 252 260 263 265 268 272 275 283 280 271 283 280 280 287 290 292 292 294
329 329 331 338 329 288 283 275 267 257 243 237 239 245 251 252 253 253 243 236 233 237 242 245 245 251 256 260 265 272 280 277 274 272 275 281 282 280 283 289 293 297 297
337 337 343 346 345 327 298 280 263 242 237 232 228 244 248 249 242 232 230 237 231 233 242 243 244 250 254 259 267 279 267 278 274 285 280 281 279 282 292 296 295 295 296
345 345 354 340 346 341 333 328 309 209 215 203 205 241 221 225 217 219 218 218 221 228 234 239 243 249 253 260 258 275 270 268 279 284 282 287 287 293 294 295 296 298 300
347 353 353 4 359 336 323 285 273 237 220 216 222 217 202 221 227 212 208 215 217 228 231 239 241 249 259 265 261 268 275 280 281 279 288 294 294 294 296 298 299 300 299
345 349 3 2 13 19 20 22 34 134 118 173 200 239 240 228 208 210 211 220 225 228 238 258 251 256 262 271 267 276 277 280 285 287 289 292 295 296 297 298 299 301 303
353 354 5 18 16 15 26 36 56 47 62 67 96 145 146 157 150 174 198 220 240 240 255 244 262 267 268 276 279 281 287 287 289 292 293 293 294 298 301 302 305 307 307
358 6 8 17 24 29 45 60 92 109 97 113 121 113 166 145 194 206 261 256 272 259 247 267 282 278 282 287 288 289 292 296 296 295 297 301 303 303 305 306 307 308 309
356 359 9 -0 23 49 77 46 56 52 44 133 114 71 103 166 83 342 293 271 280 275 271 279 289 289 287 288 293 296 295 294 296 301 302 303 303 305 306 308 308 310 314
345 355 12 13 16 16 23 37 45 24 50 49 81 49 355 292 303 275 278 282 289 298 302 294 290 291 292 294 296 298 301 303 303 304 305 305 305 306 307 308 311 316 315
358 355 -0 13 17 25 55 351 351 356 352 337 322 342 328 318 314 317 310 304 300 298 295 295 297 300 303 305 305 304 304 305 305 305 306 306 306 306 308 311 315 312 318
344 355 343 350 7 9 11 12 5 357 353 352 331 319 316 322 327 320 314 311 308 306 307 308 310 311 309 308 307 308 308 308 307 307 305 304 304 305 312 309 297 311 314
313 326 332 334 353 -0 357 354 350 341 331 323 325 328 327 326 319 315 311 310 311 312 313 314 314 313 314 314 314 313 312 310 309 307 304 304 307 313 302 297 307 313 316